Location: Muenchen
(48.1800°N, 11.5800°E)
Time: 17:40:13
(UTC+02:00)

Tiros 1 - Visible Passes

Search period start: 19 April 2015 00:00
Search period end: 29 April 2015 00:00
Orbit: 632 x 666 km, 48.4° (Epoch: 19 April)

Date Brightness Start Highest point End Pass type
(mag) Time Alt. Az. Time Alt. Az. Time Alt. Az.
19 Apr 8.5 04:02:14 23° SSE 04:03:07 25° SE 04:06:56 10° E visible
19 Apr 7.3 05:40:18 10° WSW 05:44:54 69° SSE 05:49:31 10° E visible
20 Apr 9.7 02:49:53 10° ESE 02:49:53 10° ESE 02:49:56 10° ESE visible
20 Apr 7.7 04:27:34 28° SSW 04:29:31 43° SSE 04:33:55 10° E visible
21 Apr 8.8 03:15:09 22° SE 03:15:09 22° SE 03:18:01 10° E visible
21 Apr 7.2 04:52:51 19° WSW 04:56:03 67° SSE 05:00:39 10° E visible
22 Apr 7.6 03:40:24 41° SSE 03:40:39 41° SSE 03:45:02 10° E visible
22 Apr 7.1 05:18:05 10° W 05:22:41 87° S 05:27:20 10° E visible
23 Apr 9.4 02:27:56 15° ESE 02:27:56 15° ESE 02:29:06 10° E visible
23 Apr 7.1 04:05:36 39° SW 04:07:10 65° SSE 04:11:46 10° E visible
24 Apr 8.3 02:53:06 32° ESE 02:53:06 32° ESE 02:56:08 10° E visible
24 Apr 7.1 04:30:46 22° WSW 04:33:48 86° S 04:38:28 10° E visible
25 Apr 7.1 03:18:15 63° SSE 03:18:18 63° SSE 03:22:53 10° E visible
25 Apr 7.1 04:55:55 10° W 05:00:31 86° N 05:05:09 10° E visible
26 Apr 9.1 02:05:42 19° E 02:05:42 19° E 02:07:15 10° E visible
26 Apr 7.0 03:43:22 42° WSW 03:44:55 85° S 03:49:34 10° E visible
26 Apr 7.1 05:22:32 10° W 05:27:13 87° S 05:31:51 10° ESE visible
27 Apr 7.9 02:30:48 41° E 02:30:48 41° E 02:34:00 10° E visible
27 Apr 7.1 04:08:28 21° W 04:11:37 86° N 04:16:16 10° E visible
28 Apr 9.7 01:18:14 11° E 01:18:14 11° E 01:18:20 10° E visible
28 Apr 6.9 02:55:54 82° SSW 02:56:01 83° SSE 03:00:41 10° E visible
28 Apr 7.1 04:33:38 10° W 04:38:19 88° S 04:42:58 10° E visible
